Location: Ciserano
(45.5833°N, 9.6000°E)
Time: 22:50:34
(UTC+00:00)

FALCON 9 DEB - Pass Details

Date: 21 June 2021
Orbit: 364 x 377 km, 53.0° (Epoch: 26 July)

Event Time Altitude Azimuth Distance (km) Brightness Sun altitude
Rises 01:29:42 0° 303° (WNW) 2,269 6.8 -15.2°
Reaches altitude 10° 01:31:48 10° 308° (NW) 1,412 5.8 -15.1°
Maximum altitude 01:34:53 52° 26° (NNE) 486 3.8 -14.8°
Drops below altitude 10° 01:37:58 10° 105° (ESE) 1,401 5.9 -14.5°
Sets 01:40:02 0° 110° (ESE) 2,248 6.9 -14.3°
